Location: Sternwarte_Laufen
(47.9344°N, 12.9346°E)
Time: 06:15:12
(UTC+02:00)

ISS - Pass Details

Date: 19 July 2018
Orbit: 402 x 408 km, 51.6° (Epoch: 21 July)

Event Time Altitude Azimuth Distance (km) Brightness Sun altitude
Rises 04:42:50 0° 291° (WNW) 2,334 -0.2 -6.9°
Reaches altitude 10° 04:45:00 10° 284° (WNW) 1,471 -1.3 -6.6°
Maximum altitude 04:48:06 40° 213° (SSW) 615 -3.4 -6.3°
Drops below altitude 10° 04:51:13 10° 142° (SE) 1,465 -1.0 -5.9°
Sets 04:53:22 0° 135° (SE) 2,323 0.1 -5.6°
